Time,TemperatureF,DewpointF,PressureIn,WindDirection,WindDirectionDegrees,WindSpeedMPH,WindSpeedGustMPH,Humidity,HourlyPrecipIn,Conditions,Clouds,dailyrainin,SoftwareType,DateUTC
2013-06-22 00:02:00,81.5,75.1,29.91,NE,45,4.7,-999.0,81,-99.99,,,0.00,Acu-Link.com,2013-06-22 05:02:00,
2013-06-22 00:18:00,81.1,75.1,29.91,ESE,112,7.8,-999.0,82,-99.99,,,0.00,Acu-Link.com,2013-06-22 05:18:00,
2013-06-22 00:33:00,81.0,75.0,29.91,South,180,2.7,-999.0,82,-99.99,,,0.00,Acu-Link.com,2013-06-22 05:33:00,
2013-06-22 00:48:00,80.8,74.8,29.90,NNE,22,1.7,-999.0,82,-99.99,,,0.00,Acu-Link.com,2013-06-22 05:48:00,
2013-06-22 01:03:00,80.6,74.9,29.91,ESE,112,1.7,-999.0,83,-99.99,,,0.00,Acu-Link.com,2013-06-22 06:03:00,
2013-06-22 01:18:00,80.6,74.9,29.91,East,90,2.7,-999.0,83,-99.99,,,0.00,Acu-Link.com,2013-06-22 06:18:00,
2013-06-22 01:33:00,80.4,74.7,29.90,ESE,112,3.7,-999.0,83,-99.99,,,0.00,Acu-Link.com,2013-06-22 06:33:00,
2013-06-22 01:48:00,80.2,74.9,29.88,ESE,112,1.7,-999.0,84,-99.99,,,0.00,Acu-Link.com,2013-06-22 06:48:00,
2013-06-22 02:03:00,80.1,74.8,29.90,ESE,112,3.2,-999.0,84,-99.99,,,0.00,Acu-Link.com,2013-06-22 07:03:00,
2013-06-22 02:19:00,80.1,74.8,29.91,SSE,157,2.2,-999.0,84,-99.99,,,0.00,Acu-Link.com,2013-06-22 07:19:00,
2013-06-22 02:34:00,79.7,74.8,29.91,SSE,157,1.7,-999.0,85,-99.99,,,0.00,Acu-Link.com,2013-06-22 07:34:00,
2013-06-22 02:49:00,79.5,74.9,29.90,SSE,157,1.1,-999.0,86,-99.99,,,0.00,Acu-Link.com,2013-06-22 07:49:00,
2013-06-22 03:05:00,79.2,75.0,29.89,ESE,112,0.0,-999.0,87,-99.99,,,0.00,Acu-Link.com,2013-06-22 08:05:00,
2013-06-22 03:20:00,79.0,74.8,29.90,ESE,112,1.7,-999.0,87,-99.99,,,0.00,Acu-Link.com,2013-06-22 08:20:00,
2013-06-22 03:36:00,78.8,74.6,29.90,ESE,112,0.0,-999.0,87,-99.99,,,0.00,Acu-Link.com,2013-06-22 08:36:00,
2013-06-22 03:51:00,78.6,74.7,29.91,South,180,0.0,-999.0,88,-99.99,,,0.00,Acu-Link.com,2013-06-22 08:51:00,
2013-06-22 04:06:00,78.3,74.8,29.89,East,90,0.0,-999.0,89,-99.99,,,0.00,Acu-Link.com,2013-06-22 09:06:00,
2013-06-22 04:21:00,78.1,74.6,29.88,SSE,157,1.7,-999.0,89,-99.99,,,0.00,Acu-Link.com,2013-06-22 09:21:00,
2013-06-22 04:36:00,78.1,74.6,29.89,SSE,157,1.1,-999.0,89,-99.99,,,0.00,Acu-Link.com,2013-06-22 09:36:00,
2013-06-22 04:51:00,78.1,74.9,29.88,ESE,112,2.2,-999.0,90,-99.99,,,0.00,Acu-Link.com,2013-06-22 09:51:00,
2013-06-22 05:06:00,78.3,75.1,29.87,SE,135,2.7,-999.0,90,-99.99,,,0.00,Acu-Link.com,2013-06-22 10:06:00,
2013-06-22 05:21:00,78.3,75.1,29.88,SE,135,1.7,-999.0,90,-99.99,,,0.00,Acu-Link.com,2013-06-22 10:21:00,
2013-06-22 05:37:00,78.3,75.1,29.89,SSE,157,2.7,-999.0,90,-99.99,,,0.00,Acu-Link.com,2013-06-22 10:37:00,
2013-06-22 05:52:00,78.3,75.1,29.87,ESE,112,2.7,-999.0,90,-99.99,,,0.00,Acu-Link.com,2013-06-22 10:52:00,
2013-06-22 06:07:00,78.6,75.4,29.87,South,180,3.2,-999.0,90,-99.99,,,0.00,Acu-Link.com,2013-06-22 11:07:00,
2013-06-22 06:22:00,78.4,75.2,29.88,SSE,157,2.2,-999.0,90,-99.99,,,0.00,Acu-Link.com,2013-06-22 11:22:00,
2013-06-22 06:37:00,78.4,75.2,29.89,SSE,157,2.2,-999.0,90,-99.99,,,0.00,Acu-Link.com,2013-06-22 11:37:00,
2013-06-22 06:52:00,78.3,75.1,29.89,SSE,157,2.7,-999.0,90,-99.99,,,0.00,Acu-Link.com,2013-06-22 11:52:00,
2013-06-22 07:07:00,78.3,75.1,29.88,SE,135,0.0,-999.0,90,-99.99,,,0.00,Acu-Link.com,2013-06-22 12:07:00,
2013-06-22 07:22:00,78.6,75.4,29.88,South,180,2.7,-999.0,90,-99.99,,,0.00,Acu-Link.com,2013-06-22 12:22:00,
2013-06-22 07:37:00,79.0,75.8,29.88,ESE,112,3.2,-999.0,90,-99.99,,,0.00,Acu-Link.com,2013-06-22 12:37:00,
2013-06-22 07:53:00,79.7,76.2,29.88,South,180,3.2,-999.0,89,-99.99,,,0.00,Acu-Link.com,2013-06-22 12:53:00,
2013-06-22 08:08:00,80.4,76.2,29.88,SSW,202,3.7,-999.0,87,-99.99,,,0.00,Acu-Link.com,2013-06-22 13:08:00,
2013-06-22 08:23:00,81.7,76.7,29.88,South,180,2.7,-999.0,85,-99.99,,,0.00,Acu-Link.com,2013-06-22 13:23:00,
2013-06-22 08:38:00,82.4,76.0,29.89,SSE,157,7.8,-999.0,81,-99.99,,,0.00,Acu-Link.com,2013-06-22 13:38:00,
2013-06-22 08:53:00,83.3,75.7,29.89,SE,135,3.2,-999.0,78,-99.99,,,0.00,Acu-Link.com,2013-06-22 13:53:00,
2013-06-22 09:08:00,84.2,75.4,29.90,South,180,1.7,-999.0,75,-99.99,,,0.00,Acu-Link.com,2013-06-22 14:08:00,
2013-06-22 09:23:00,85.8,75.7,29.89,SE,135,0.0,-999.0,72,-99.99,,,0.00,Acu-Link.com,2013-06-22 14:23:00,
2013-06-22 09:38:00,88.7,76.3,29.90,ESE,112,3.7,-999.0,67,-99.99,,,0.00,Acu-Link.com,2013-06-22 14:38:00,
2013-06-22 09:53:00,90.0,76.6,29.90,SSW,202,7.3,-999.0,65,-99.99,,,0.00,Acu-Link.com,2013-06-22 14:53:00,
2013-06-22 10:09:00,91.4,76.5,29.89,ESE,112,4.7,-999.0,62,-99.99,,,0.00,Acu-Link.com,2013-06-22 15:09:00,
2013-06-22 10:24:00,91.4,76.5,29.89,SE,135,4.2,-999.0,62,-99.99,,,0.00,Acu-Link.com,2013-06-22 15:24:00,
2013-06-22 10:39:00,93.6,76.6,29.89,SSE,157,2.7,-999.0,58,-99.99,,,0.00,Acu-Link.com,2013-06-22 15:39:00,
2013-06-22 10:54:00,94.6,75.9,29.88,ESE,112,2.7,-999.0,55,-99.99,,,0.00,Acu-Link.com,2013-06-22 15:54:00,
2013-06-22 11:09:00,94.1,74.9,29.89,SSE,157,3.2,-999.0,54,-99.99,,,0.00,Acu-Link.com,2013-06-22 16:09:00,
2013-06-22 11:24:00,94.5,74.7,29.89,SE,135,2.7,-999.0,53,-99.99,,,0.00,Acu-Link.com,2013-06-22 16:24:00,
2013-06-22 11:39:00,95.2,73.6,29.89,NE,45,5.3,-999.0,50,-99.99,,,0.00,Acu-Link.com,2013-06-22 16:39:00,
2013-06-22 11:54:00,95.9,73.0,29.89,SSW,202,4.7,-999.0,48,-99.99,,,0.00,Acu-Link.com,2013-06-22 16:54:00,
2013-06-22 12:10:00,95.0,73.4,29.89,ESE,112,2.7,-999.0,50,-99.99,,,0.00,Acu-Link.com,2013-06-22 17:10:00,
2013-06-22 12:25:00,95.2,74.2,29.89,ESE,112,4.2,-999.0,51,-99.99,,,0.00,Acu-Link.com,2013-06-22 17:25:00,
2013-06-22 12:40:00,96.4,74.1,29.88,NNE,22,6.3,-999.0,49,-99.99,,,0.00,Acu-Link.com,2013-06-22 17:40:00,
2013-06-22 12:55:00,96.3,72.7,29.88,SSE,157,3.7,-999.0,47,-99.99,,,0.00,Acu-Link.com,2013-06-22 17:55:00,
2013-06-22 13:10:00,97.3,73.0,29.89,ENE,67,5.3,-999.0,46,-99.99,,,0.00,Acu-Link.com,2013-06-22 18:10:00,
2013-06-22 13:25:00,97.2,73.6,29.89,NE,45,5.8,-999.0,47,-99.99,,,0.00,Acu-Link.com,2013-06-22 18:25:00,
2013-06-22 13:40:00,94.8,72.0,29.87,ESE,112,5.3,-999.0,48,-99.99,,,0.00,Acu-Link.com,2013-06-22 18:40:00,
2013-06-22 13:55:00,97.5,72.5,29.87,ESE,112,10.4,-999.0,45,-99.99,,,0.00,Acu-Link.com,2013-06-22 18:55:00,
2013-06-22 14:11:00,97.9,72.9,29.88,ESE,112,7.3,-999.0,45,-99.99,,,0.00,Acu-Link.com,2013-06-22 19:11:00,
2013-06-22 14:26:00,97.3,73.6,29.87,East,90,6.3,-999.0,47,-99.99,,,0.00,Acu-Link.com,2013-06-22 19:26:00,
2013-06-22 14:41:00,96.6,73.0,29.88,ESE,112,9.9,-999.0,47,-99.99,,,0.00,Acu-Link.com,2013-06-22 19:41:00,
2013-06-22 14:56:00,95.9,73.6,29.86,ESE,112,10.9,-999.0,49,-99.99,,,0.00,Acu-Link.com,2013-06-22 19:56:00,
2013-06-22 15:11:00,96.1,75.0,29.85,ESE,112,4.2,-999.0,51,-99.99,,,0.00,Acu-Link.com,2013-06-22 20:11:00,
2013-06-22 15:26:00,95.7,75.2,29.85,SSE,157,6.3,-999.0,52,-99.99,,,0.00,Acu-Link.com,2013-06-22 20:26:00,
2013-06-22 15:41:00,95.7,74.6,29.86,SE,135,8.9,-999.0,51,-99.99,,,0.00,Acu-Link.com,2013-06-22 20:41:00,
2013-06-22 15:56:00,94.8,75.5,29.85,East,90,11.9,-999.0,54,-99.99,,,0.00,Acu-Link.com,2013-06-22 20:56:00,
2013-06-22 16:11:00,93.9,75.8,29.83,East,90,9.4,-999.0,56,-99.99,,,0.00,Acu-Link.com,2013-06-22 21:11:00,
2013-06-22 16:27:00,93.9,75.8,29.83,East,90,10.4,-999.0,56,-99.99,,,0.00,Acu-Link.com,2013-06-22 21:27:00,
2013-06-22 16:42:00,93.9,75.2,29.82,ENE,67,12.5,-999.0,55,-99.99,,,0.00,Acu-Link.com,2013-06-22 21:42:00,
2013-06-22 16:57:00,94.3,75.1,29.81,East,90,9.9,-999.0,54,-99.99,,,0.00,Acu-Link.com,2013-06-22 21:57:00,
2013-06-22 17:12:00,92.3,74.8,29.80,South,180,5.3,-999.0,57,-99.99,,,0.00,Acu-Link.com,2013-06-22 22:12:00,
2013-06-22 17:27:00,92.5,75.5,29.80,ESE,112,6.3,-999.0,58,-99.99,,,0.00,Acu-Link.com,2013-06-22 22:27:00,
2013-06-22 17:42:00,92.1,76.2,29.80,East,90,10.4,-999.0,60,-99.99,,,0.00,Acu-Link.com,2013-06-22 22:42:00,
2013-06-22 17:57:00,91.0,76.1,29.80,East,90,9.4,-999.0,62,-99.99,,,0.00,Acu-Link.com,2013-06-22 22:57:00,
2013-06-22 18:12:00,89.4,76.1,29.80,ESE,112,3.7,-999.0,65,-99.99,,,0.00,Acu-Link.com,2013-06-22 23:12:00,
2013-06-22 18:28:00,90.0,76.1,29.79,ESE,112,8.3,-999.0,64,-99.99,,,0.00,Acu-Link.com,2013-06-22 23:28:00,
2013-06-22 18:43:00,89.4,75.1,29.80,SSE,157,11.4,-999.0,63,-99.99,,,0.00,Acu-Link.com,2013-06-22 23:43:00,
2013-06-22 18:58:00,90.0,75.7,29.80,NE,45,12.5,-999.0,63,-99.99,,,0.00,Acu-Link.com,2013-06-22 23:58:00,
2013-06-22 19:13:00,88.2,75.8,29.80,East,90,7.3,-999.0,67,-99.99,,,0.00,Acu-Link.com,2013-06-23 00:13:00,
2013-06-22 19:28:00,87.8,75.9,29.79,ESE,112,11.4,-999.0,68,-99.99,,,0.00,Acu-Link.com,2013-06-23 00:28:00,
2013-06-22 19:43:00,85.8,75.3,29.79,SE,135,5.3,-999.0,71,-99.99,,,0.00,Acu-Link.com,2013-06-23 00:43:00,
2013-06-22 19:59:00,84.9,74.8,29.80,ESE,112,4.7,-999.0,72,-99.99,,,0.00,Acu-Link.com,2013-06-23 00:59:00,
2013-06-22 20:14:00,84.2,74.6,29.81,ESE,112,5.3,-999.0,73,-99.99,,,0.00,Acu-Link.com,2013-06-23 01:14:00,
2013-06-22 20:29:00,83.7,74.9,29.80,NE,45,4.2,-999.0,75,-99.99,,,0.00,Acu-Link.com,2013-06-23 01:29:00,
2013-06-22 20:44:00,83.1,74.7,29.80,ESE,112,7.3,-999.0,76,-99.99,,,0.00,Acu-Link.com,2013-06-23 01:44:00,
2013-06-22 20:59:00,82.9,74.9,29.81,SE,135,7.3,-999.0,77,-99.99,,,0.00,Acu-Link.com,2013-06-23 01:59:00,
2013-06-22 21:14:00,82.6,74.6,29.82,East,90,5.3,-999.0,77,-99.99,,,0.00,Acu-Link.com,2013-06-23 02:14:00,
2013-06-22 21:29:00,82.6,75.0,29.81,South,180,7.3,-999.0,78,-99.99,,,0.00,Acu-Link.com,2013-06-23 02:29:00,
2013-06-22 21:44:00,82.4,74.8,29.81,ESE,112,8.3,-999.0,78,-99.99,,,0.00,Acu-Link.com,2013-06-23 02:44:00,
2013-06-22 21:59:00,82.2,75.0,29.83,SE,135,2.2,-999.0,79,-99.99,,,0.00,Acu-Link.com,2013-06-23 02:59:00,
2013-06-22 22:15:00,82.2,75.0,29.84,SE,135,5.3,-999.0,79,-99.99,,,0.00,Acu-Link.com,2013-06-23 03:15:00,
2013-06-22 22:30:00,82.0,74.8,29.85,ENE,67,3.2,-999.0,79,-99.99,,,0.00,Acu-Link.com,2013-06-23 03:30:00,
2013-06-22 22:45:00,81.9,75.1,29.85,SE,135,4.2,-999.0,80,-99.99,,,0.00,Acu-Link.com,2013-06-23 03:45:00,
2013-06-22 23:00:00,81.9,75.1,29.86,SW,225,4.7,-999.0,80,-99.99,,,0.00,Acu-Link.com,2013-06-23 04:00:00,
2013-06-22 23:15:00,81.7,75.3,29.86,East,90,4.2,-999.0,81,-99.99,,,0.00,Acu-Link.com,2013-06-23 04:15:00,
2013-06-22 23:30:00,81.3,74.9,29.87,SSE,157,3.2,-999.0,81,-99.99,,,0.00,Acu-Link.com,2013-06-23 04:30:00,
2013-06-22 23:45:00,81.1,75.1,29.88,ENE,67,5.3,-999.0,82,-99.99,,,0.00,Acu-Link.com,2013-06-23 04:45:00,